SCP
0 0 0 0 0 0 0 0 0 0 0 0 0 0 0 0 0 0 0 0 0 0 0 0 0 0 0 0 0 0 0 0
0 0 0 0 0 0 0 0 0 0 0 0 0 0 0 0 0 0 0 0 0 0 0 0 0 0 0 0 0 0 0 0
0 0 0 0 0 0 0 0 0 0 0 0 0 0 0 0 0 0 0 0 0 0 0 0 0 0 0 0 0 0 0 0
0 0 0 0 0 0 0 0 0 0 0 0 0 0 0 0 0 0 0 0 0 0 0 0 0 0 0 0 0 0 0 0
0 0 0 0 0 0 0 0 0 0 0 0 0 0 0 0 0 0 0 0 0 0 0 0 0 0 0 0 0 0 0 0
0 0 0 0 0 0 0 0 0 0 0 0 0 0 0 0 0 0 0 0 0 0 0 0 0 0 0 0 0 0 0 0
0 0 0 0 0 0 0 0 0 0 0 0 0 0 0 0 0 0 0 0 0 0 0 0 0 0 0 0 0 0 0 0
0 0 0 0 0 0 0 0 0 0 0 0 0 0 0 0 0 0 0 0 0 0 0 0 0 0 0 0 0 0 0 0
0 0 0 0 0 0 0 0 0 0 0 0 0 0 0 0 0 0 0 0 0 0 0 0 0 0 0 0 0 0 0 0
0 0 0 0 0 0 0 0 0 0 0 0 0 0 0 0 0 0 0 0 0 0 0 0 0 0 0 0 0 0 0 0
0 0 0 0 0 0 0 0 0 0 0 0 0 0 0 0 0 0 0 0 0 0 0 0 0 0 0 0 0 0 0 0
0 0 0 0 0 0 0 0 0 0 0 0 0 0 0 0 0 0 0 0 0 0 0 0 0 0 0 0 0 0 0 0
0 0 0 0 0 0 0 0 0 0 0 0 0 0 0 0 0 0 0 0 0 0 0 0 0 0 0 0 0 0 0 0
0 0 0 0 0 0 0 0 0 0 0 0 0 0 0 0 0 0 0 0 0 0 0 0 0 0 0 0 0 0 0 0
0 0 0 0 0 0 0 0 0 0 0 0 0 0 0 0 0 0 0 0 0 0 0 0 0 0 0 0 0 0 0 0
0 0 0 0 0 0 0 0 0 0 0 0 0 0 0 0 0 0 0 0 0 0 0 0 0 0 0 0 0 0 0 0
0 0 0 0 0 0 0 0 0 0 0 0 0 0 0 0 0 0 0 0 0 0 0 0 0 0 0 0 0 0 0 0
0 0 0 0 0 0 0 0 0 0 0 0 0 0 0 0 0 0 0 0 0 0 0 0 0 0 0 0 0 0 0 0
0 0 0 0 0 0 0 0 0 0 0 0 0 0 0 0 0 0 0 0 0 0 0 0 0 0 0 0 0 0 0 0
-0 -0 -0 0 0 0 0 0 0 0 0 0 0 0 0 0 0 0 0 0 0 0 0 0 0 0 0 0 0 0 0 0
Wind_Speed_500mb
50 75 79 91 92 93 99 105 101 97 92 87 91 86 78 68 67 62 55 52 51 48 45 44 43 40 38 35 32 28 23 26
55 65 72 83 89 92 93 96 98 96 91 87 92 90 81 72 70 64 59 56 54 51 48 46 45 43 40 38 35 31 31 35
58 57 71 78 82 88 89 93 97 96 91 87 93 92 85 77 73 67 61 57 55 53 50 47 47 45 43 41 39 33 38 41
53 54 61 69 81 84 85 89 92 93 90 90 94 93 87 80 76 69 62 60 59 57 53 50 49 46 45 43 42 36 40 43
29 40 49 61 74 82 80 84 87 88 89 92 95 93 89 83 78 72 64 62 60 57 53 50 48 47 47 48 45 41 41 42
28 36 43 54 65 72 76 77 79 83 88 91 93 92 88 83 78 72 65 61 59 58 55 52 49 49 50 50 49 45 44 45
21 33 37 41 48 55 65 67 72 80 86 89 93 91 86 83 80 74 69 64 63 60 58 55 51 49 50 51 50 48 46 49
17 30 36 40 48 55 59 63 66 70 81 86 90 89 85 84 83 77 72 68 64 61 59 56 52 50 51 51 51 50 49 50
7 17 31 37 42 52 58 61 66 67 74 81 84 84 85 85 82 77 72 67 64 64 60 57 53 52 51 50 50 50 50 50
15 10 18 28 36 45 56 61 61 65 70 79 82 83 84 85 82 77 74 69 67 62 60 59 57 55 52 50 49 52 53 52
23 22 20 20 25 38 50 58 55 60 65 72 75 79 83 83 80 76 72 68 64 61 61 60 57 56 54 51 49 54 57 56
29 24 21 17 19 28 36 45 48 49 52 64 70 76 79 80 77 74 72 68 65 63 61 59 58 58 56 50 48 51 60 63
43 37 26 19 16 21 25 29 37 42 45 52 59 65 71 72 73 72 70 69 67 64 62 60 58 57 55 49 47 47 54 63
54 45 38 28 19 18 17 18 25 34 39 46 52 58 63 67 71 71 69 69 69 67 65 65 62 60 56 48 46 44 46 52
43 45 45 39 28 22 17 17 19 27 35 41 47 51 55 58 63 67 69 69 68 69 69 66 65 64 61 56 50 47 44 45
43 38 38 38 33 28 16 14 19 24 29 36 41 44 49 52 57 61 62 63 66 66 64 67 69 66 62 59 60 54 49 51
35 30 28 29 28 26 24 14 9 16 23 31 38 43 46 48 52 52 51 54 57 57 59 59 57 56 59 58 57 53 52 59
38 35 30 25 23 18 18 17 15 10 11 21 29 38 44 47 49 52 55 54 53 55 57 56 49 51 55 57 57 55 56 61
36 36 36 28 22 19 13 10 7 8 7 6 10 22 32 39 43 46 50 55 57 57 57 56 54 53 52 53 57 65 69 66
42 36 34 33 24 21 18 11 7 3 1 1 4 8 14 24 32 39 44 48 49 53 57 59 56 55 55 57 66 71 73 73
Wind_Direction_500mb
194 200 203 206 209 210 211 208 209 210 211 208 205 208 208 206 203 203 201 197 195 191 188 187 188 186 182 176 176 174 165 167
216 205 203 203 205 205 206 204 205 207 208 206 204 206 206 204 203 201 200 195 195 193 190 185 188 190 184 180 176 174 173 166
204 202 200 201 200 200 201 201 206 207 205 202 202 204 202 201 200 200 199 195 194 193 192 185 187 192 187 184 179 176 175 172
191 199 196 196 195 193 198 199 204 204 201 198 200 202 201 198 198 198 196 195 193 194 191 187 187 191 187 187 184 179 178 181
182 188 191 189 188 189 189 196 200 201 200 198 200 202 200 197 197 196 194 195 195 194 192 191 186 190 189 188 188 183 180 183
172 169 178 185 188 188 189 196 199 199 199 199 198 201 198 195 195 195 195 196 197 194 191 193 190 189 191 190 190 187 184 183
178 177 173 183 183 182 188 189 186 194 196 197 198 199 196 193 193 194 194 195 195 195 195 192 192 190 192 194 191 190 191 186
183 182 185 184 186 183 181 182 182 184 193 196 196 195 193 192 193 194 195 195 195 195 196 195 193 192 194 195 196 196 195 193
131 174 178 183 187 186 184 180 181 181 186 195 195 194 191 191 194 194 195 196 196 197 196 197 195 195 194 196 197 199 200 199
92 115 140 168 183 184 183 182 181 179 186 193 194 192 190 192 194 195 196 196 199 198 197 198 196 197 196 198 197 201 202 200
89 96 106 138 165 177 181 184 184 181 188 191 193 193 193 194 195 196 199 200 199 199 201 202 198 199 200 202 204 202 203 202
64 85 103 114 132 159 177 186 190 190 192 192 193 194 195 195 197 197 198 200 201 202 202 203 202 203 203 205 209 208 203 203
52 58 78 108 121 137 156 177 190 194 193 194 195 195 197 199 198 199 200 201 201 202 203 205 203 206 209 206 208 207 204 203
43 51 57 66 92 126 132 158 177 185 189 192 194 197 200 201 202 201 202 204 203 204 205 207 203 205 209 209 209 209 204 201
28 38 45 51 61 83 118 141 157 176 184 189 195 198 200 202 205 207 206 206 207 207 207 208 207 206 208 206 208 209 200 201
7 18 29 39 49 55 74 125 153 168 181 189 195 201 203 204 210 213 215 218 214 213 214 212 212 211 213 210 209 209 204 198
347 359 12 24 36 46 53 71 128 170 180 191 194 198 203 206 207 209 216 220 221 222 223 221 224 222 219 217 216 217 214 204
329 337 352 4 10 22 34 48 68 105 171 191 197 204 206 207 211 212 211 215 220 221 219 220 225 224 224 225 223 222 222 219
308 319 324 335 344 344 357 9 30 67 89 125 183 207 211 214 216 218 219 220 218 217 219 219 218 218 221 223 225 222 225 227
295 304 307 313 319 319 321 323 312 281 280 135 152 169 195 211 216 220 222 222 222 224 221 218 217 223 221 220 223 225 227 229
Wind_Speed_850mb
50 75 79 91 92 93 99 105 101 97 92 87 91 86 78 68 67 62 55 52 51 48 45 44 43 40 38 35 32 28 23 26
55 65 72 83 89 92 93 96 98 96 91 87 92 90 81 72 70 64 59 56 54 51 48 46 45 43 40 38 35 31 31 35
58 57 71 78 82 88 89 93 97 96 91 87 93 92 85 77 73 67 61 57 55 53 50 47 47 45 43 41 39 33 38 41
53 54 61 69 81 84 85 89 92 93 90 90 94 93 87 80 76 69 62 60 59 57 53 50 49 46 45 43 42 36 40 43
29 40 49 61 74 82 80 84 87 88 89 92 95 93 89 83 78 72 64 62 60 57 53 50 48 47 47 48 45 41 41 42
28 36 43 54 65 72 76 77 79 83 88 91 93 92 88 83 78 72 65 61 59 58 55 52 49 49 50 50 49 45 44 45
21 33 37 41 48 55 65 67 72 80 86 89 93 91 86 83 80 74 69 64 63 60 58 55 51 49 50 51 50 48 46 49
17 30 36 40 48 55 59 63 66 70 81 86 90 89 85 84 83 77 72 68 64 61 59 56 52 50 51 51 51 50 49 50
7 17 31 37 42 52 58 61 66 67 74 81 84 84 85 85 82 77 72 67 64 64 60 57 53 52 51 50 50 50 50 50
15 10 18 28 36 45 56 61 61 65 70 79 82 83 84 85 82 77 74 69 67 62 60 59 57 55 52 50 49 52 53 52
23 22 20 20 25 38 50 58 55 60 65 72 75 79 83 83 80 76 72 68 64 61 61 60 57 56 54 51 49 54 57 56
29 24 21 17 19 28 36 45 48 49 52 64 70 76 79 80 77 74 72 68 65 63 61 59 58 58 56 50 48 51 60 63
43 37 26 19 16 21 25 29 37 42 45 52 59 65 71 72 73 72 70 69 67 64 62 60 58 57 55 49 47 47 54 63
54 45 38 28 19 18 17 18 25 34 39 46 52 58 63 67 71 71 69 69 69 67 65 65 62 60 56 48 46 44 46 52
43 45 45 39 28 22 17 17 19 27 35 41 47 51 55 58 63 67 69 69 68 69 69 66 65 64 61 56 50 47 44 45
43 38 38 38 33 28 16 14 19 24 29 36 41 44 49 52 57 61 62 63 66 66 64 67 69 66 62 59 60 54 49 51
35 30 28 29 28 26 24 14 9 16 23 31 38 43 46 48 52 52 51 54 57 57 59 59 57 56 59 58 57 53 52 59
38 35 30 25 23 18 18 17 15 10 11 21 29 38 44 47 49 52 55 54 53 55 57 56 49 51 55 57 57 55 56 61
36 36 36 28 22 19 13 10 7 8 7 6 10 22 32 39 43 46 50 55 57 57 57 56 54 53 52 53 57 65 69 66
42 36 34 33 24 21 18 11 7 3 1 1 4 8 14 24 32 39 44 48 49 53 57 59 56 55 55 57 66 71 73 73
Wind_Direction_850mb
194 200 203 206 209 210 211 208 209 210 211 208 205 208 208 206 203 203 201 197 195 191 188 187 188 186 182 176 176 174 165 167
216 205 203 203 205 205 206 204 205 207 208 206 204 206 206 204 203 201 200 195 195 193 190 185 188 190 184 180 176 174 173 166
204 202 200 201 200 200 201 201 206 207 205 202 202 204 202 201 200 200 199 195 194 193 192 185 187 192 187 184 179 176 175 172
191 199 196 196 195 193 198 199 204 204 201 198 200 202 201 198 198 198 196 195 193 194 191 187 187 191 187 187 184 179 178 181
182 188 191 189 188 189 189 196 200 201 200 198 200 202 200 197 197 196 194 195 195 194 192 191 186 190 189 188 188 183 180 183
172 169 178 185 188 188 189 196 199 199 199 199 198 201 198 195 195 195 195 196 197 194 191 193 190 189 191 190 190 187 184 183
178 177 173 183 183 182 188 189 186 194 196 197 198 199 196 193 193 194 194 195 195 195 195 192 192 190 192 194 191 190 191 186
183 182 185 184 186 183 181 182 182 184 193 196 196 195 193 192 193 194 195 195 195 195 196 195 193 192 194 195 196 196 195 193
131 174 178 183 187 186 184 180 181 181 186 195 195 194 191 191 194 194 195 196 196 197 196 197 195 195 194 196 197 199 200 199
92 115 140 168 183 184 183 182 181 179 186 193 194 192 190 192 194 195 196 196 199 198 197 198 196 197 196 198 197 201 202 200
89 96 106 138 165 177 181 184 184 181 188 191 193 193 193 194 195 196 199 200 199 199 201 202 198 199 200 202 204 202 203 202
64 85 103 114 132 159 177 186 190 190 192 192 193 194 195 195 197 197 198 200 201 202 202 203 202 203 203 205 209 208 203 203
52 58 78 108 121 137 156 177 190 194 193 194 195 195 197 199 198 199 200 201 201 202 203 205 203 206 209 206 208 207 204 203
43 51 57 66 92 126 132 158 177 185 189 192 194 197 200 201 202 201 202 204 203 204 205 207 203 205 209 209 209 209 204 201
28 38 45 51 61 83 118 141 157 176 184 189 195 198 200 202 205 207 206 206 207 207 207 208 207 206 208 206 208 209 200 201
7 18 29 39 49 55 74 125 153 168 181 189 195 201 203 204 210 213 215 218 214 213 214 212 212 211 213 210 209 209 204 198
347 359 12 24 36 46 53 71 128 170 180 191 194 198 203 206 207 209 216 220 221 222 223 221 224 222 219 217 216 217 214 204
329 337 352 4 10 22 34 48 68 105 171 191 197 204 206 207 211 212 211 215 220 221 219 220 225 224 224 225 223 222 222 219
308 319 324 335 344 344 357 9 30 67 89 125 183 207 211 214 216 218 219 220 218 217 219 219 218 218 221 223 225 222 225 227
295 304 307 313 319 319 321 323 312 281 280 135 152 169 195 211 216 220 222 222 222 224 221 218 217 223 221 220 223 225 227 229